{"data":{"norad_id":69326,"intl_designator":"2026-121B","name":"QIANFAN-164","alt_names":[],"object_type":"PAYLOAD","status":"ACTIVE","operator":null,"country":"PRC","launch_date":"2026-06-01","launch_site_code":"JSC","launch_vehicle":null,"mission":null,"orbit_class":"UNKNOWN","rcs_meters":null,"size_class":null,"mass_kg":null,"dimensions":null,"purposes":[],"wikipedia_slug":null,"has_3d_model":false,"image_url":null,"decayed_at":null,"tle_current":{"epoch":"2026-09-19T18:38:52.357632Z","epoch_age_seconds":92586,"freshness":"FRESH","line1":"1 69326U 26121B   26262.77699488  .00000045  00000+0  51314-4 0  9990","line2":"2 69326  89.0099 291.0885 0002073 110.9862 249.1511 13.51021485 14946","mean_motion":13.51021485,"eccentricity":0.0002073,"inclination_deg":89.0099,"raan_deg":291.0885,"arg_perigee_deg":110.9862,"mean_anomaly_deg":249.1511,"bstar":5.1314e-5,"rev_number":1494,"period_min":106.58601776418,"perigee_km":1066.9589476117,"apogee_km":1070.0463244048,"semimajor_km":7446.6396360083,"source":"CELESTRAK","updated_at":"2026-09-20T09:00:24.819043Z"}}}